Location: Home
(42.5358°N, 72.7383°W)
Time: 11:53:12
(UTC-05:00)

A-11 Canister half - Pass Details

Date: 09 December 2021
Orbit: 1524 x 1684 km, 47.3° (Epoch: 19 January)

Event Time Altitude Azimuth Distance (km) Brightness Sun altitude
Rises 21:47:03 0° 198° (SSW) 4,874 - -58.9°
Reaches altitude 10° 21:50:38 10° 188° (S) 3,907 - -59.4°
Maximum altitude 21:59:02 31° 131° (SE) 2,619 - -60.7°
Drops below altitude 10° 22:07:30 10° 74° (ENE) 3,949 - -62.0°
Sets 22:11:06 0° 65° (ENE) 4,934 - -62.5°
